Theta_e
352 356 348 339 321 318 313 319 325 321 324 330 332 329 326 331 324 310 338 344 347 349 354 357 363 363 364 364 366 366 365 367 368 366 368 368 367 365 364 363 362 361 360 360 360 360 361 362 362
346 351 345 329 314 308 312 324 321 324 330 332 332 331 328 325 337 333 338 346 348 351 353 357 362 364 364 363 363 364 363 364 366 366 366 364 367 366 363 362 362 361 361 360 360 360 359 359 360
348 352 330 320 314 312 313 324 325 330 333 333 330 335 330 329 334 335 343 346 350 351 353 357 365 365 363 363 365 366 365 362 362 363 363 363 365 363 362 362 361 361 360 360 360 359 359 358 358
344 339 330 317 315 323 322 328 330 328 331 334 332 328 335 341 335 342 346 349 349 350 354 362 363 362 362 363 364 364 364 364 362 358 360 361 362 362 362 361 360 360 361 360 360 359 359 358 357
338 329 316 314 318 324 330 332 331 328 331 333 333 329 331 341 345 345 346 348 347 348 352 358 364 364 362 362 364 365 363 362 362 361 360 361 363 362 362 362 361 361 361 360 360 358 358 357 357
324 324 312 308 316 325 330 334 332 331 332 333 332 330 331 343 342 344 347 346 349 350 354 357 362 363 364 362 362 362 363 361 360 359 358 358 357 360 362 361 361 360 359 358 357 357 358 357 355
320 318 312 315 317 323 329 335 330 329 329 328 336 327 332 339 343 345 346 348 349 352 354 355 355 358 363 364 362 363 362 358 358 356 352 356 348 350 355 359 359 357 357 356 356 356 355 356 355
326 319 314 315 315 318 332 334 334 332 330 338 338 326 326 336 344 344 345 347 348 353 355 354 354 355 355 357 363 363 359 359 357 356 355 354 345 342 352 356 358 356 356 355 354 355 355 356 355
327 311 309 314 318 320 334 330 338 340 333 336 338 335 337 343 344 343 344 346 348 351 353 354 354 354 355 355 356 362 362 358 357 357 357 354 347 345 349 354 357 356 354 354 355 357 356 354 356
317 309 313 321 323 325 332 328 334 333 332 333 334 338 341 342 342 340 340 340 344 347 350 353 354 353 354 357 356 356 356 354 353 353 351 348 346 346 350 351 354 355 354 354 356 359 358 356 355
318 311 319 322 326 332 331 330 336 330 326 330 330 333 337 339 340 340 341 341 343 347 350 351 352 352 353 354 352 353 353 351 351 351 351 349 347 349 350 350 350 348 351 352 354 352 353 355 353
314 320 322 323 329 330 330 334 330 330 329 336 335 337 336 337 338 340 341 342 344 345 348 351 352 351 351 352 351 352 351 350 348 349 349 348 346 345 347 347 348 347 348 350 351 351 353 352 353
311 317 321 324 324 325 331 330 329 330 334 337 338 337 337 337 339 342 343 344 344 343 347 350 351 351 351 351 351 351 350 350 349 348 348 349 347 345 346 347 347 347 348 349 350 350 350 349 350
313 315 316 320 322 323 324 326 327 329 335 334 336 335 336 338 339 340 341 341 342 343 344 348 350 351 351 351 351 351 351 352 350 349 349 348 348 347 346 346 346 346 348 349 350 349 349 349 349
312 309 311 314 319 319 323 316 317 330 333 330 333 334 336 338 341 340 342 342 343 343 343 346 349 350 350 351 351 351 349 352 351 350 350 349 348 347 347 347 347 348 349 349 349 349 349 348 348
307 308 303 312 315 317 317 306 312 331 330 327 328 332 335 337 339 342 343 343 344 344 344 346 350 349 349 349 349 349 349 351 350 350 351 350 350 349 347 347 347 347 350 348 348 347 345 345 346
302 298 302 308 315 313 311 307 312 330 329 327 327 326 328 334 338 341 343 344 345 345 345 346 348 348 349 349 346 346 349 350 350 348 350 350 350 350 348 348 348 349 349 348 346 345 344 342 345
298 297 300 301 307 310 307 307 309 328 328 327 327 326 325 326 334 340 343 345 345 345 346 348 348 348 348 344 343 345 348 349 347 350 348 350 349 350 348 348 349 348 349 348 346 345 342 342 343
300 297 299 302 306 307 306 305 309 312 327 326 326 326 325 325 331 339 342 344 344 345 344 347 347 345 346 343 341 342 343 345 347 349 350 350 349 350 348 349 349 350 348 349 347 346 343 344 346
299 298 298 302 306 304 303 303 307 308 320 327 327 328 329 328 331 335 339 342 343 344 345 345 346 344 346 346 342 344 342 343 346 348 348 350 350 351 349 348 348 349 348 346 347 346 344 344 344
297 295 296 298 302 303 302 299 303 307 312 314 323 326 331 331 331 334 336 338 343 343 345 345 345 346 346 346 343 341 343 342 343 345 347 349 349 350 350 348 348 348 349 346 346 346 344 340 342
295 300 300 301 296 293 299 291 298 303 307 311 315 318 321 328 332 332 334 337 341 343 346 346 345 346 347 346 344 340 339 338 340 342 345 347 349 348 350 349 347 346 347 346 347 347 346 343 340
299 304 303 302 295 293 296 293 297 303 304 307 310 318 320 324 328 330 334 338 341 344 344 345 344 345 347 346 346 342 339 340 340 342 343 344 345 346 349 349 348 346 346 347 347 347 347 344 342
304 301 299 296 293 290 292 294 296 305 307 308 314 322 323 323 327 331 335 338 339 342 343 344 343 344 345 346 346 343 341 339 339 339 340 342 344 344 344 345 346 347 347 347 349 348 349 347 345
299 294 289 290 289 290 290 295 299 309 316 317 320 323 320 326 326 330 333 335 338 340 342 343 342 341 344 345 345 345 344 342 341 340 340 340 342 342 344 344 344 346 348 349 349 349 349 349 347
296 295 290 286 287 289 293 292 299 316 320 322 325 325 326 327 330 333 335 337 339 341 342 343 342 330 334 345 345 346 346 344 343 343 342 342 342 343 345 344 344 346 348 348 347 348 349 350 349
296 294 296 290 288 289 293 300 308 318 319 322 324 326 327 330 332 333 336 338 330 340 341 343 339 336 340 344 346 345 346 344 343 344 345 344 344 344 342 342 344 347 348 348 349 346 346 350 349
301 300 294 291 288 287 291 295 296 311 315 319 322 325 327 330 328 326 329 329 334 338 341 344 344 343 343 344 346 346 345 345 345 343 343 344 344 343 344 344 345 347 348 349 348 345 346 348 346
298 295 292 292 291 289 288 293 303 313 317 317 320 325 328 330 329 330 330 333 335 336 340 343 344 344 344 345 346 346 345 345 344 344 344 344 346 345 346 346 346 347 348 350 349 344 345 346 344
297 294 292 290 289 289 290 293 309 317 318 317 318 325 328 328 326 327 329 330 329 333 333 334 338 346 347 348 348 348 346 345 344 343 344 347 345 346 345 347 347 349 349 350 349 347 349 346 345
Wind_Speed
4 4 3 2 5 7 2 4 2 3 3 2 6 2 5 2 1 3 4 5 15 12 7 12 15 17 16 15 16 17 18 18 18 18 18 18 18 17 16 15 15 15 15 14 15 14 13 12 11
2 4 3 3 6 4 4 5 3 2 5 7 6 3 4 3 4 7 7 10 15 12 7 8 15 16 17 15 15 16 17 17 17 18 18 17 17 16 16 15 15 14 14 13 13 12 12 12 10
2 3 4 5 3 2 1 3 3 6 4 3 3 6 3 2 7 11 6 13 13 11 7 8 16 16 17 17 15 16 17 16 15 14 16 16 16 16 14 14 13 13 13 12 12 10 11 10 9
2 4 5 6 2 2 3 2 4 1 5 6 3 6 4 3 9 6 14 14 13 9 7 12 17 17 17 17 17 17 15 15 16 15 12 14 15 15 14 13 12 11 11 11 9 8 8 8 8
3 4 5 3 2 3 4 3 6 3 3 4 2 3 4 2 10 16 14 13 13 8 6 8 15 16 16 15 15 15 17 16 16 15 13 12 12 13 13 12 10 9 8 8 7 5 5 6 5
4 3 5 2 1 3 5 4 2 3 1 1 5 4 3 11 14 14 13 12 12 12 7 7 14 15 15 17 14 15 16 15 15 15 13 9 5 8 11 11 10 9 7 6 5 5 5 5 3
5 4 2 3 1 3 5 4 1 2 4 2 4 4 2 4 11 11 10 10 10 10 7 5 7 12 15 14 16 15 16 15 14 13 17 13 14 1 4 6 7 7 6 5 4 4 2 2 1
4 4 1 2 2 1 4 5 7 3 2 3 2 5 5 6 12 11 8 8 9 9 8 6 6 7 7 7 15 16 16 15 15 16 17 16 12 9 12 5 6 7 4 3 2 2 2 2 2
3 5 0 3 4 4 5 4 3 4 5 2 2 2 5 17 14 12 9 5 5 6 7 6 8 6 6 5 9 15 16 15 14 14 17 13 9 13 12 8 8 6 4 3 3 4 3 3 3
4 4 6 4 6 6 6 5 8 4 2 1 3 3 18 17 15 15 13 12 12 11 8 7 7 6 6 6 5 5 5 5 4 5 5 4 5 5 6 7 10 9 6 6 7 7 5 2 2
2 4 5 4 5 10 7 3 3 9 4 8 8 13 16 16 12 12 9 10 13 9 8 7 6 6 6 5 4 2 2 3 3 5 4 4 4 3 2 2 2 1 6 2 3 2 1 1 2
3 4 4 4 5 5 3 3 5 6 5 3 13 18 17 15 14 13 13 13 13 12 11 8 7 6 5 3 3 3 3 3 2 4 5 4 3 3 3 2 2 2 2 2 2 0 0 1 2
2 2 3 5 4 4 5 6 3 8 2 12 15 17 17 16 14 12 11 9 10 11 11 10 8 8 6 5 4 4 4 3 4 3 4 4 4 3 3 2 2 3 2 2 2 2 2 3 3
4 5 4 5 5 1 5 2 3 4 10 13 17 19 17 18 17 10 11 12 12 11 12 10 10 9 8 6 5 5 3 4 4 4 4 5 3 3 3 3 3 3 3 3 3 3 3 3 2
3 4 5 5 4 5 5 5 10 4 12 16 16 15 15 16 16 19 17 16 15 10 7 11 11 8 9 8 5 4 3 4 5 5 6 6 4 5 4 3 3 3 3 3 3 2 2 3 3
3 4 5 4 5 3 8 12 6 9 12 12 14 13 14 17 22 17 16 13 10 9 11 10 11 10 8 8 5 5 4 4 4 4 4 6 6 5 4 3 3 3 2 3 3 3 2 3 3
8 1 4 8 4 3 3 9 5 9 11 11 13 13 13 12 14 17 15 14 12 10 10 11 10 10 10 6 4 4 5 5 3 2 4 6 6 6 5 3 3 3 3 3 3 3 2 2 2
6 6 3 5 5 4 3 14 7 7 11 12 12 11 13 15 20 15 16 14 12 10 9 8 8 8 9 4 4 2 3 3 3 6 4 6 5 7 6 4 4 3 3 3 2 3 3 3 2
3 3 5 5 9 3 6 8 17 7 9 9 11 13 15 19 16 12 13 10 12 9 5 9 11 8 9 5 3 2 4 2 3 5 7 6 6 7 6 4 4 4 4 4 5 3 3 2 2
4 4 7 7 5 3 3 9 13 3 9 17 15 14 17 12 11 13 13 14 14 12 16 13 14 12 10 7 3 3 3 2 2 2 4 5 7 7 6 6 5 5 3 3 5 4 2 1 3
4 5 4 6 6 4 4 9 5 5 4 6 9 10 12 16 16 14 15 15 14 18 14 11 12 13 11 9 5 3 2 2 2 1 2 4 5 6 6 6 5 5 4 4 4 4 5 3 3
3 6 4 3 4 2 3 6 6 6 4 4 3 6 6 10 9 11 13 13 17 17 15 12 12 13 10 11 9 7 6 5 4 4 3 3 5 5 6 6 5 5 3 4 4 4 4 3 3
9 2 1 2 2 2 4 4 8 7 9 9 6 7 9 9 12 13 15 14 12 12 12 10 8 10 9 11 10 9 5 4 3 2 4 4 4 5 6 6 5 5 4 4 4 4 5 4 3
2 1 5 4 3 4 3 4 7 5 8 9 6 6 4 6 8 8 8 8 8 7 6 7 9 9 9 10 9 10 10 7 5 4 4 4 4 5 6 4 5 4 4 6 4 4 5 5 3
6 7 5 7 7 5 2 3 8 8 9 6 9 10 5 8 9 10 9 8 7 6 3 7 8 4 4 7 9 10 9 8 9 7 6 5 4 4 8 7 5 5 6 6 5 5 5 5 4
3 7 7 2 1 6 3 1 5 5 9 9 6 4 7 10 10 11 10 10 9 13 11 10 11 9 13 10 9 9 8 6 6 6 5 5 5 6 6 8 7 7 6 5 6 3 5 5 5
3 4 4 7 3 2 3 3 5 5 8 8 5 8 10 11 11 11 9 12 11 12 17 17 14 12 10 15 8 8 8 7 7 7 7 6 6 6 7 9 8 8 7 8 6 4 5 5 4
7 5 5 5 1 3 5 4 6 2 4 7 6 6 6 7 9 7 8 8 7 8 2 9 12 13 14 11 10 11 11 8 6 4 7 7 5 7 7 7 7 6 6 7 6 4 4 6 4
4 4 7 6 4 5 2 7 5 7 3 5 6 2 5 7 6 4 7 6 6 7 7 2 6 9 9 8 7 8 8 7 6 8 6 5 5 8 7 7 6 6 7 7 6 6 6 6 5
2 4 5 6 4 1 3 7 2 4 2 6 7 7 6 4 5 3 6 7 8 7 6 6 6 2 6 8 9 9 7 5 8 8 5 7 8 6 7 7 6 6 7 7 6 6 6 7 6
Wind_Direction
215 207 174 76 58 63 2 334 317 92 129 180 143 166 162 72 149 199 144 151 129 132 140 146 146 140 135 130 128 131 133 137 139 138 136 136 134 130 131 126 119 112 110 105 103 102 102 99 101
193 187 32 65 81 80 297 299 90 88 111 101 103 109 57 90 75 119 131 153 134 133 128 142 149 140 138 136 130 129 135 139 140 138 137 140 135 136 136 130 122 119 115 109 103 106 104 103 105
252 39 68 78 79 101 47 303 50 137 141 125 101 58 76 95 105 147 142 143 130 126 124 147 146 140 141 142 140 140 143 144 140 141 140 144 140 138 138 131 128 124 117 113 110 107 101 101 99
341 14 38 70 80 214 204 303 308 149 61 76 111 65 72 97 144 147 141 137 128 124 129 151 145 147 149 146 150 150 148 147 142 143 147 149 146 143 142 134 132 129 123 117 116 109 103 100 94
49 45 56 64 332 294 276 231 212 323 53 41 68 85 73 36 109 132 140 139 133 127 133 150 153 152 152 155 154 152 152 154 154 157 158 161 151 148 144 139 136 136 134 129 124 110 110 99 104
43 81 61 93 217 317 288 258 174 102 113 85 75 90 123 130 131 146 147 144 143 144 145 155 162 158 157 159 163 157 154 159 162 155 143 168 123 154 147 152 155 153 157 145 137 122 121 115 124
112 88 245 133 158 151 243 170 171 151 138 68 118 81 60 154 142 143 142 138 142 144 146 160 158 169 168 170 164 167 160 167 169 157 166 159 165 53 225 160 156 162 163 156 163 142 137 131 164
121 90 33 334 145 244 200 154 136 141 78 119 117 168 177 168 144 130 130 136 145 151 158 162 163 168 162 183 172 176 175 173 174 168 170 154 165 210 250 204 203 185 191 189 211 199 195 169 162
93 63 151 212 157 221 179 162 122 76 113 95 96 131 151 138 133 124 125 123 139 160 169 173 175 168 161 176 188 184 189 187 186 179 169 173 165 194 222 208 207 200 208 249 256 242 231 212 188
102 113 217 209 180 191 207 183 137 117 153 258 100 70 134 142 149 150 164 168 181 184 182 178 175 171 158 178 185 172 189 186 170 181 185 147 167 177 176 202 221 229 235 257 267 255 220 223 114
191 189 179 241 205 171 204 83 128 124 222 215 172 151 149 149 158 161 169 183 189 185 187 178 172 167 162 176 168 175 173 167 149 165 167 156 152 186 180 205 234 287 258 317 318 313 40 144 153
332 275 204 202 185 150 185 131 154 184 229 181 152 157 153 164 172 173 182 183 181 187 189 181 164 162 164 154 176 177 180 158 167 169 170 152 163 176 200 210 208 213 230 251 256 253 96 247 231
223 274 234 247 203 180 135 226 195 229 236 120 140 160 167 172 180 191 192 187 191 194 192 182 167 169 170 173 178 179 182 171 172 173 183 163 165 183 196 214 193 210 200 210 213 226 236 246 245
306 291 267 255 218 212 171 206 166 245 125 141 156 175 175 181 184 181 197 195 200 194 195 177 182 173 170 179 188 199 178 172 167 182 191 185 170 175 199 203 208 217 201 190 200 220 229 248 249
292 307 326 254 221 213 136 284 227 169 151 155 174 180 182 187 182 196 198 205 196 197 184 179 177 169 180 187 185 190 201 184 183 189 191 188 184 183 199 219 218 201 207 194 195 229 245 266 277
34 46 7 286 158 249 124 261 262 162 159 171 179 185 192 194 199 198 201 209 207 193 185 173 179 175 182 193 177 191 182 204 210 184 182 194 193 188 196 214 234 189 194 198 203 201 228 240 253
7 316 309 314 222 101 168 264 288 165 174 179 191 191 199 206 208 207 200 197 195 192 185 177 177 175 188 177 159 202 194 193 196 211 182 197 197 187 196 204 216 203 192 205 205 220 215 248 243
319 339 313 258 287 166 205 271 255 183 186 190 193 193 203 207 216 202 202 194 183 185 176 168 176 178 180 147 133 186 197 220 172 201 210 189 196 192 192 194 203 188 191 202 203 205 207 230 249
244 212 252 258 267 187 244 269 276 193 212 200 195 196 204 213 210 203 205 190 183 170 125 172 175 170 166 159 156 187 211 188 205 200 210 191 193 192 181 186 182 181 203 204 198 203 231 249 214
213 249 277 293 254 121 313 270 266 208 220 214 202 202 210 208 193 196 195 198 172 150 206 178 181 170 178 184 165 165 163 195 172 177 214 201 192 190 182 185 179 189 183 204 198 183 191 220 190
205 196 246 230 339 13 357 307 319 321 294 245 226 220 215 207 193 192 195 188 152 171 208 206 185 174 180 173 140 103 101 76 118 204 214 202 196 185 182 184 183 190 185 184 190 198 195 191 206
301 209 244 275 58 272 52 277 307 337 14 31 180 218 241 229 192 189 188 181 180 192 196 194 177 171 178 173 181 174 173 178 188 185 165 189 198 200 184 187 191 201 191 208 204 202 204 162 180
229 0 72 34 114 61 1 67 278 353 355 345 347 202 208 201 184 188 188 188 172 181 189 185 167 170 178 183 193 191 180 180 148 162 180 181 184 190 181 182 190 207 196 220 214 196 205 191 181
72 64 46 59 72 34 302 110 306 339 297 299 327 330 318 168 145 146 149 145 140 148 150 179 171 179 170 184 200 197 201 181 161 174 196 194 192 198 200 178 207 206 207 218 215 203 213 208 198
75 52 351 6 11 228 352 68 242 295 317 304 318 308 64 131 132 139 125 88 76 86 137 111 84 28 302 224 198 210 207 200 196 182 191 188 191 202 212 191 199 217 210 217 195 195 215 209 203
87 129 146 215 252 277 303 17 270 318 320 314 322 309 70 78 78 87 110 117 143 173 163 152 142 217 226 229 216 218 206 200 205 186 182 199 211 217 195 194 194 222 202 211 193 201 212 200 214
163 55 165 103 7 46 266 308 324 349 336 341 20 69 84 98 137 145 155 185 205 166 170 167 181 205 243 234 197 211 219 204 204 194 193 189 202 213 198 195 195 209 196 210 180 199 222 209 204
103 158 44 12 161 289 306 269 229 203 283 318 28 72 104 144 157 174 202 228 19 36 132 176 186 199 199 215 213 212 196 207 210 201 200 204 202 206 186 194 203 201 203 202 184 189 201 205 202
357 23 61 111 120 171 227 270 213 186 245 326 337 49 169 191 197 192 242 36 43 45 46 107 175 200 199 196 205 216 203 192 195 224 195 197 199 189 189 190 197 191 206 208 195 193 182 198 199
122 129 105 112 262 43 140 278 318 166 337 330 315 343 323 234 266 339 10 33 34 35 26 13 356 224 190 199 195 213 197 200 205 203 195 186 210 196 185 175 189 194 215 204 198 204 194 192 203